Orbital Elements at Epoch 2453797.5 (2006-Mar-03.0) TDB
Reference: JPL 27 (heliocentric ecliptic J2000)
Element | Value | Uncertainty (1-sigma) | Units |
e | .6126761757215264 | 5.9906e-07 | |
a | 6.461794319595412 | 4.9247e-07 | au |
q | 2.502806887566612 | 3.6934e-06 | au |
i | 19.3650390822162 | 3.2755e-05 | deg |
node | 55.2703132532838 | 6.2322e-05 | deg |
peri | 356.8672687214484 | 0.00022257 | deg |
M | 89.83506973833599 | 5.3785e-05 | deg |
tp | 2452300.328571161574 (2002-Jan-25.82857116) | 0.00088945 | TDB |
period | 5999.680480593312 16.43 | 0.00068588 1.878e-06 | d yr |
n | .06000319536423036 | 6.8595e-09 | deg/d |
Q | 10.42078175162421 | 7.942e-07 | au |
|
| | Orbit Determination Parameters
Additional Information
|